Location: Saleratus Ranch
(37.7914°N, 109.6108°W)
Time: 19:17:34
(UTC-06:00)

OTV 5 (USA 277) - Visible Passes

Search period start: 23 June 2018 00:00
Search period end: 03 July 2018 00:00
Orbit: 313 x 320 km, 54.5° (Epoch: 21 June)

Date Brightness Start Highest point End Pass type
(mag) Time Alt. Az. Time Alt. Az. Time Alt. Az.
27 Jun ? 00:27:37 10° NNW 00:27:38 10° NNW 00:27:38 10° NNW visible
28 Jun ? 23:22:40 10° N 23:23:45 13° NNE 23:23:45 13° NNE visible
29 Jun ? 23:36:19 10° NNW 23:37:18 18° NNW 23:37:18 18° NNW visible
30 Jun ? 23:50:32 10° NW 23:50:54 13° NW 23:50:54 13° NW visible
01 Jul ? 22:31:10 10° NNW 22:33:16 20° NE 22:33:42 19° NE visible
02 Jul ? 22:45:09 10° NW 22:47:25 48° N 22:47:25 48° N visible
